Cairo, Egypt

9:54 AM EET on May 25, 2018 (GMT +0200)
Cairo International Airport

Weather History for HECA - May, 2013

Change the Weather History Date:

Saturday, May 18, 2013

  Actual Average Record
Temperature  
Mean Temperature 81 °F -  
Max Temperature 94 °F 89 °F 105 °F (1997)
Min Temperature 68 °F 67 °F 60 °F (2001)
Cooling Degree Days 16    
Growing Degree Days 31 (Base 50)    
Moisture  
Dew Point 50 °F    
Average Humidity 36    
Maximum Humidity 78    
Minimum Humidity 12    
Precipitation  
Precipitation 0.00 in 0.00 in - ()
Sea Level Pressure  
Sea Level Pressure 29.97 in    
Wind  
Wind Speed 13 mph ()    
Max Wind Speed 20 mph    
Max Gust Speed -    
Visibility 6.0 miles    
Events      
Averages and records for this station are not official NWS values.
T = Trace of Precipitation, MM = Missing Value Source: Averaged Metar Reports

Daily Weather History Graph

Daily Weather History Graph

Search for Another Location

Airport or City:

Astronomy

May. 18, 2013 Rise Set
Actual Time 4:59 AM EET 6:42 PM EET
Civil Twilight 4:32 AM EET 7:09 PM EET
Nautical Twilight 4:00 AM EET 7:41 PM EET
Astronomical Twilight 3:27 AM EET 8:14 PM EET
Moon 11:56 AM EET (5/18) 12:09 AM EET (5/18)
Length of Visible Light 14h 36m
Length of Day
13h 43m
First Quarter, 52% of the Moon is Illuminated
May 18
First Quarter
May 25
Full
May 31
Last Quarter
Jun 8
New
Jun 16
First Quarter

Hourly Weather History & Observations

Time (EET) Temp. Dew Point Humidity Pressure Visibility Wind Dir Wind Speed Gust Speed Precip Events Conditions
12:00 AM 73.4 °F 53.6 °F 50% 30.01 in - ENE 17.3 mph - N/A   Clear
12:30 AM 73.4 °F 53.6 °F 50% 30.01 in - ENE 17.3 mph - N/A   Clear
1:00 AM 73.4 °F 55.4 °F 53% 30.01 in - ENE 19.6 mph - N/A   Clear
1:30 AM 71.6 °F 55.4 °F 57% 29.98 in - ENE 12.7 mph - N/A   Clear
2:00 AM 72 °F 55 °F 44% 29.99 in 6 mi ENE 10.4 mph - -  
2:00 AM 71.6 °F 55.4 °F 57% 29.98 in - ENE 10.4 mph - N/A   Clear
2:30 AM 71.6 °F 55.4 °F 57% 29.98 in - ENE 11.5 mph - N/A   Clear
3:00 AM 71.6 °F 57.2 °F 60% 29.98 in - ENE 11.5 mph - N/A   Clear
3:30 AM 71.6 °F 55.4 °F 57% 29.98 in - NE 9.2 mph - N/A   Clear
4:00 AM 69.8 °F 59.0 °F 68% 29.98 in - NNE 10.4 mph - N/A   Clear
4:30 AM 69.8 °F 60.8 °F 73% 29.95 in - ENE 13.8 mph - N/A   Clear
5:00 AM 68.0 °F 60.8 °F 78% 29.95 in - NE 10.4 mph - N/A   Clear
5:30 AM 69.8 °F 57.2 °F 64% 29.98 in - ENE 10.4 mph - N/A   Clear
6:00 AM 69.8 °F 57.2 °F 64% 29.98 in - NE 11.5 mph - N/A   Clear
6:30 AM 71.6 °F 57.2 °F 60% 29.98 in - NE 11.5 mph - N/A   Clear
7:00 AM 73.4 °F 55.4 °F 53% 29.98 in - ENE 11.5 mph - N/A   Clear
7:30 AM 75.2 °F 55.4 °F 50% 29.98 in - ENE 11.5 mph - N/A   Clear
8:00 AM 79 °F 47 °F 22% 30.00 in 6 mi ENE 10.4 mph - -   Clear
8:00 AM 78.8 °F 46.4 °F 32% 29.98 in - ENE 10.4 mph - N/A   Clear
8:30 AM 78.8 °F 46.4 °F 32% 30.01 in - ENE 10.4 mph - N/A   Clear
9:00 AM 78.8 °F 51.8 °F 39% 30.04 in - North 13.8 mph - N/A   Clear
9:30 AM 80.6 °F 51.8 °F 37% 30.01 in - NNE 12.7 mph - N/A   Clear
10:00 AM 82.4 °F 51.8 °F 35% 30.01 in - NE 12.7 mph - N/A   Clear
10:30 AM 84.2 °F 51.8 °F 33% 30.04 in - NE 12.7 mph - N/A   Clear
11:00 AM 86.0 °F 50.0 °F 29% 30.01 in - NNE 16.1 mph - N/A   Clear
11:30 AM 87.8 °F 50.0 °F 27% 30.01 in - NNE 16.1 mph - N/A   Clear
12:00 PM 87.8 °F 50.0 °F 27% 30.01 in - NNE 16.1 mph - N/A   Clear
12:30 PM 91.4 °F 46.4 °F 21% 29.98 in - NE 19.6 mph - N/A   Clear
1:00 PM 91.4 °F 42.8 °F 18% 29.98 in - NNE 18.4 mph - N/A   Clear
1:30 PM 91.4 °F 46.4 °F 21% 29.98 in - NNE 18.4 mph - N/A   Clear
2:00 PM 92 °F 45 °F 12% 29.95 in 6 mi NNE 18.4 mph - -  
2:00 PM 91.4 °F 44.6 °F 20% 29.95 in - NNE 18.4 mph - N/A   Clear
2:30 PM 93.2 °F 46.4 °F 20% 29.95 in - NNE 18.4 mph - N/A   Clear
3:00 PM 93.2 °F 50.0 °F 23% 29.92 in - NE 16.1 mph - N/A   Clear
3:30 PM 93.2 °F 48.2 °F 21% 29.95 in - NE 16.1 mph - N/A   Clear
4:00 PM 93.2 °F 48.2 °F 21% 29.92 in - NNE 15.0 mph - N/A   Clear
4:30 PM 93.2 °F 46.4 °F 20% 29.92 in - NNE 16.1 mph - N/A   Clear
5:00 PM 93.2 °F 44.6 °F 19% 29.92 in - NNE 16.1 mph - N/A   Clear
5:30 PM 91.4 °F 44.6 °F 20% 29.92 in - NNE 16.1 mph - N/A   Clear
6:00 PM 91.4 °F 44.6 °F 20% 29.95 in - NNE 17.3 mph - N/A   Clear
6:30 PM 89.6 °F 46.4 °F 22% 29.95 in - NNE 17.3 mph - N/A   Clear
7:00 PM 87.8 °F 44.6 °F 22% 29.92 in - NE 11.5 mph - N/A   Clear
7:30 PM 87.8 °F 44.6 °F 22% 29.95 in - NNE 15.0 mph - N/A   Clear
8:00 PM 86 °F 46 °F 16% 29.94 in 6 mi NNE 12.7 mph - -  
8:00 PM 86.0 °F 46.4 °F 25% 29.95 in - NNE 12.7 mph - N/A   Clear
8:30 PM 84.2 °F 46.4 °F 27% 29.95 in - NNE 12.7 mph - N/A   Clear
9:00 PM 82.4 °F 46.4 °F 28% 29.95 in - NNE 11.5 mph - N/A   Clear
9:30 PM 82.4 °F 46.4 °F 28% 29.95 in - NNE 11.5 mph - N/A   Clear
10:00 PM 80.6 °F 48.2 °F 32% 29.95 in - NNE 9.2 mph - N/A   Clear
10:30 PM 80.6 °F 48.2 °F 32% 29.95 in - ENE 11.5 mph - N/A   Clear
11:00 PM 78.8 °F 48.2 °F 34% 29.92 in - ENE 13.8 mph - N/A   Clear
11:30 PM 78.8 °F 48.2 °F 34% 29.92 in - ENE 13.8 mph - N/A   Clear